Home > Weather > Eindhoven > Past weeks

Flag for Netherlands Weather for the Past 2 Weeks in Eindhoven, Netherlands

Now
34 °F

Fog.


Feels Like: 28 °F
Forecast: 34 / 44 °F
Wind: 7 mph from Southwest

Location: Eindhoven Airport

Current Time: Feb 11, 2016 at 8:07:36 AM

Latest Report: Feb 11, 2016 at 7:25 AM


Visibility: 3 mi

Pressure: 29.62 "Hg

Humidity: 100%

Dew point: 34 °F

Location of EindhovenLocation

Historic Weather in Eindhoven — Graph

°F

Eindhoven Temperature Yesterday

Maximum temperature yesterday: 46 °F (at 2:02 PM)
Minimum temperature yesterday: 37 °F (at 12:25 AM)
Average temperature yesterday: 40 °F

High & Low Weather Summary for the Past Weeks

 TemperatureHumidityPressure
High54 °F (Jan 27, 1:25 PM)100% (Jan 27, 6:55 PM)30.30 "Hg (Jan 27, 6:55 PM)
Low34 °F (Feb 11, 6:25 AM)57% (Jan 28, 3:25 PM)28.85 "Hg (Feb 9, 2:55 PM)
Average45 °F85%29.81 "Hg
* Reported Jan 27 6:25 AM — Feb 11 6:59 AM, Eindhoven, Weather by CustomWeather, © 2016

Note: Actual official high and low records may vary slightly from our data, if they occured in-between our weather recording intervals... More about our weather records

Advertising

Eindhoven Weather History for the Previous 24 Hours

 ConditionsComfort  
Time TempWeatherWind HumidityBarometerVisibility
6:59 AM
Thu, Feb 11
34 °FFog.7 mph100%29.62 "Hg4 mi
6:25 AM34 °FFog.7 mph100%29.62 "Hg5 mi
5:59 AM36 °FFog.7 mph93%29.62 "Hg5 mi
5:25 AM36 °FFog.9 mph93%29.62 "Hg4 mi
4:55 AM36 °FFog.8 mph100%29.62 "Hg4 mi
4:25 AM36 °FFog.8 mph100%29.62 "Hg3 mi
3:55 AM36 °FFog.10 mph100%29.59 "Hg4 mi
2:55 AM39 °FOvercast.9 mph93%29.59 "HgN/A
2:25 AM39 °FMostly cloudy.9 mph93%29.59 "HgN/A
1:55 AM37 °FFog.8 mph100%29.59 "Hg6 mi
1:25 AM37 °FFog.8 mph93%29.59 "Hg2 mi
12:55 AM36 °FFog.7 mph100%29.56 "Hg4 mi
11:55 PM
Wed, Feb 10
37 °FPassing clouds.8 mph93%29.56 "HgN/A
11:25 PM37 °FPassing clouds.6 mph93%29.56 "HgN/A
10:55 PM37 °FPassing clouds.7 mph93%29.56 "HgN/A
10:25 PM39 °FMostly cloudy.7 mph93%29.53 "HgN/A
9:55 PM39 °FPassing clouds.8 mph93%29.53 "HgN/A
9:25 PM39 °FPassing clouds.8 mph93%29.53 "HgN/A
8:55 PM39 °FOvercast.6 mph93%29.50 "HgN/A
8:25 PM41 °FPassing clouds.7 mph87%29.50 "HgN/A
7:55 PM39 °FPassing clouds.8 mph100%29.50 "HgN/A
7:25 PM41 °FLight rain. Passing clouds.9 mph93%29.47 "HgN/A
6:55 PM39 °FPassing clouds.7 mph93%29.47 "HgN/A
6:25 PM41 °FPartly cloudy.8 mph93%29.45 "HgN/A
5:55 PM41 °FMostly cloudy.9 mph93%29.42 "HgN/A
5:25 PM41 °FLight rain. Broken clouds.6 mph93%29.42 "HgN/A
4:56 PM41 °FSprinkles. Broken clouds.12 mph87%29.42 "HgN/A
4:25 PM43 °FDrizzle. Partly sunny.15 mph87%29.39 "HgN/A
3:55 PM45 °FDrizzle. Mostly cloudy.16 mph76%29.36 "HgN/A
3:25 PM46 °FMore clouds than sun.13 mph71%29.36 "HgN/A
2:55 PM46 °FScattered clouds.15 mph71%29.33 "HgN/A
2:25 PM45 °FBroken clouds.15 mph76%29.33 "HgN/A
2:02 PM46 °FBroken clouds.14 mph76%29.33 "HgN/A
1:55 PM45 °FBroken clouds.13 mph81%29.33 "HgN/A
1:25 PM45 °FScattered clouds.14 mph76%29.33 "HgN/A
12:55 PM43 °FPassing clouds.15 mph81%29.33 "HgN/A
12:25 PM45 °FPassing clouds.13 mph87%29.33 "HgN/A
11:55 AM43 °FBroken clouds.15 mph87%29.30 "HgN/A
11:25 AM43 °FBroken clouds.14 mph93%29.30 "HgN/A
10:59 AM41 °FBroken clouds.13 mph93%29.30 "HgN/A
10:25 AM39 °FDrizzle. Broken clouds.15 mph93%29.30 "HgN/A
9:58 AM39 °FLight rain. Cloudy.14 mph93%29.27 "HgN/A
9:55 AM39 °FBroken clouds.13 mph93%29.27 "HgN/A
9:25 AM37 °FDrizzle. Partly sunny.14 mph93%29.27 "HgN/A
8:55 AM39 °FDrizzle. Broken clouds.16 mph87%29.27 "HgN/A
8:25 AM39 °FDrizzle. Broken clouds.15 mph93%29.24 "HgN/A
Weather by CustomWeather, © 2016

See weather overviewHow to use our weather pages